Temperature
11 10 9 10 10 11 11 11 11 11 11 10 10 10 10 10 10 10 9 9 9 8 8 8 7 7 7 7 7 7 7 7 7 7 7 7 7 7 7 7 7 7 7 7
10 9 10 11 11 11 11 10 10 10 10 10 9 9 10 10 10 10 9 9 8 8 8 7 7 7 6 6 6 6 6 6 6 6 6 6 6 6 6 6 7 7 7 7
10 10 10 10 10 10 10 10 10 9 10 10 9 9 10 10 10 10 9 9 8 8 7 7 6 6 6 6 6 6 6 6 6 6 6 6 6 6 6 6 6 6 6 6
10 10 10 10 10 10 9 10 10 9 8 8 9 7 9 9 9 9 9 8 8 8 7 7 6 6 6 6 6 6 6 5 5 6 6 6 5 5 5 5 6 6 6 6
9 9 9 9 9 9 9 9 9 9 8 8 8 8 8 9 8 8 8 8 8 7 7 6 6 6 6 5 5 5 5 5 5 5 5 5 5 5 5 5 5 5 5 5
8 9 9 9 9 9 9 9 9 9 8 7 8 8 8 8 8 8 8 8 7 7 7 6 6 5 5 5 5 5 5 5 5 5 5 5 5 5 5 5 5 5 5 5
8 8 8 8 8 8 8 7 7 7 7 7 9 9 8 9 9 8 8 7 7 6 6 6 5 5 5 5 5 5 5 4 4 4 4 4 4 4 4 4 4 5 5 5
7 7 8 8 7 7 7 8 7 6 7 8 8 8 8 9 9 8 8 7 6 6 5 5 5 5 4 4 4 4 4 4 4 4 4 4 4 4 4 4 4 4 4 4
7 7 8 8 8 7 7 7 8 7 6 6 8 8 8 8 8 7 7 6 6 6 5 5 4 4 4 4 4 4 4 4 4 4 4 4 4 4 4 4 4 4 4 4
7 6 7 7 7 7 7 7 6 6 6 7 8 8 7 6 6 6 6 6 6 5 5 5 4 4 4 4 4 3 3 3 3 3 3 3 4 4 3 3 3 4 4 4
7 5 6 6 6 6 6 6 6 6 6 6 7 7 8 7 6 6 6 6 6 5 5 4 4 4 4 3 3 3 3 3 3 3 3 3 3 3 3 3 3 3 4 4
6 5 5 6 6 6 7 6 6 5 5 6 6 6 8 7 6 6 6 6 5 5 4 4 4 3 3 3 3 3 3 3 3 3 3 3 3 3 3 3 3 3 3 3
5 4 4 6 5 5 5 6 6 5 5 5 5 6 7 7 6 6 6 5 5 4 4 4 3 3 3 3 3 3 3 2 3 3 3 3 3 3 3 3 3 3 3 3
5 4 4 5 5 4 4 5 5 5 4 5 5 6 6 6 6 6 5 5 5 4 4 3 3 3 3 3 2 2 2 2 2 2 2 2 2 2 3 3 2 2 2 3
4 3 3 4 5 5 5 5 5 4 5 5 5 6 6 6 5 6 5 5 4 4 3 3 3 2 2 2 2 2 2 2 2 2 2 2 2 2 2 2 2 2 2 2
3 3 3 3 5 5 4 4 4 5 5 5 5 5 6 6 6 5 5 4 4 3 3 2 2 2 2 2 2 2 2 2 2 1 1 1 1 2 2 2 2 2 2 2
3 2 3 4 4 4 3 4 4 4 4 4 4 5 5 5 4 4 4 4 3 3 2 2 2 2 2 2 2 2 2 2 1 1 1 1 1 1 1 1 1 1 1 1
2 2 2 3 3 3 5 5 5 4 4 4 4 4 4 4 4 4 4 3 3 2 2 2 1 1 1 1 1 2 2 2 1 1 1 1 1 1 1 1 1 1 1 1
3 2 2 2 3 4 5 5 4 4 3 4 4 4 4 4 4 4 4 3 3 2 2 1 1 1 1 1 1 1 1 1 1 1 1 0 0 0 0 0 0 0 0 0
2 1 2 2 3 3 5 4 5 4 3 3 3 3 3 3 2 2 3 3 2 2 1 1 1 1 1 1 1 1 1 1 1 0 0 0 0 -0 -0 0 0 -0 -0 -0
1 1 1 2 2 3 3 3 4 3 3 3 4 3 2 2 2 2 2 2 1 1 1 1 0 0 0 0 0 0 0 0 0 0 -0 -0 -0 -0 -0 -0 -0 -0 -1 -1
1 1 1 2 2 3 3 2 2 2 3 3 3 3 2 2 2 1 1 1 1 0 0 0 -0 -0 -0 -0 -0 0 0 -0 -0 -1 -1 -1 -1 -1 -1 -1 -1 -1 -1 -1
2 2 2 2 3 4 3 3 3 3 3 3 3 2 2 2 1 1 0 0 0 -0 -0 -0 -1 -1 -1 -0 -0 -0 -0 -1 -1 -1 -1 -1 -1 -1 -1 -1 -1 -1 -1 -1
2 2 2 2 2 3 3 3 3 3 3 3 2 2 2 1 1 0 -0 -0 -0 -0 -1 -1 -1 -1 -1 -1 -1 -1 -1 -1 -1 -1 -1 -1 -1 -1 -1 -1 -1 -2 -2 -2
2 1 1 1 2 3 3 3 3 3 3 2 2 2 1 1 0 -0 -0 -1 -1 -1 -1 -1 -2 -2 -1 -1 -1 -1 -1 -2 -2 -2 -2 -2 -2 -2 -2 -2 -2 -2 -2 -2
1 1 1 2 3 2 3 3 3 2 2 2 2 1 1 1 0 -0 -1 -1 -1 -1 -1 -2 -2 -2 -2 -2 -1 -2 -2 -2 -2 -2 -2 -2 -2 -2 -2 -2 -2 -2 -3 -3
Wind_Speed
3 2 3 4 5 6 6 7 8 6 3 5 9 10 9 7 6 5 4 3 3 3 2 1 1 0 1 2 1 0 1 1 1 1 0 0 1 1 1 0 1 3 2 2
3 4 5 5 4 6 7 8 8 6 3 6 9 12 10 8 6 4 4 3 3 2 1 1 0 0 1 1 1 1 1 1 1 1 1 1 1 1 1 1 0 2 2 1
5 1 2 4 5 6 8 7 6 7 7 7 7 8 6 5 6 5 4 3 3 3 2 2 1 1 1 1 2 2 1 1 1 1 1 0 0 1 1 1 1 1 2 2
3 3 4 5 5 6 7 4 5 7 5 4 3 5 4 4 6 5 3 2 3 2 2 1 1 1 2 2 1 1 1 1 1 1 1 2 2 2 3 2 1 1 1 2
2 1 2 5 5 5 4 5 7 8 6 6 6 5 5 3 4 4 3 2 2 1 1 1 2 2 1 1 0 0 1 1 2 2 2 2 2 2 2 2 2 2 1 2
4 2 2 2 3 4 4 5 6 5 3 5 6 5 4 3 4 3 2 1 1 0 1 1 2 2 1 0 0 0 1 1 2 2 3 3 3 3 3 3 2 2 2 2
3 5 3 1 2 2 2 1 1 1 3 5 2 3 5 2 1 2 2 1 1 1 1 2 3 3 2 0 0 1 1 1 2 2 2 3 3 4 4 4 3 3 2 2
3 3 4 2 2 2 4 2 1 3 3 3 2 5 3 1 2 3 2 1 1 1 1 2 3 3 2 1 1 1 1 2 2 2 3 2 3 3 3 3 3 3 3 3
2 2 1 1 1 2 2 3 2 2 4 4 5 3 1 3 3 2 2 1 1 1 1 2 3 3 2 2 2 1 2 2 3 3 3 3 3 3 3 3 3 3 3 3
2 3 2 1 2 3 2 1 1 2 3 4 5 4 2 2 2 1 1 0 1 2 2 2 2 3 2 2 2 2 2 2 3 3 3 3 3 3 3 3 3 3 3 3
1 2 2 2 5 4 4 3 3 3 4 3 4 3 2 1 0 1 1 0 1 1 1 2 2 2 2 2 2 2 2 2 2 3 3 3 3 3 3 3 4 3 3 3
1 1 3 4 1 0 3 4 4 3 4 3 3 4 2 2 1 1 2 2 2 2 2 2 2 2 2 2 2 2 2 3 3 3 3 3 2 2 3 4 3 3 3 3
0 1 2 2 1 1 2 4 4 3 3 4 4 5 2 2 2 1 2 2 2 2 2 2 2 2 2 2 2 2 2 2 2 2 3 3 2 2 3 3 3 3 3 2
1 2 4 5 3 2 4 5 5 4 4 5 7 8 7 4 4 3 2 2 2 2 2 3 3 2 2 3 3 3 2 2 2 2 2 2 2 2 3 3 2 2 2 2
1 3 4 7 8 7 7 8 7 8 8 8 8 9 9 6 5 4 3 3 3 3 3 4 4 3 3 3 3 3 3 2 2 2 2 2 3 3 2 1 1 1 1 2
1 2 3 6 7 6 8 9 9 10 9 10 11 12 8 6 4 4 4 3 3 3 4 4 4 4 4 4 4 3 3 3 2 2 2 2 2 2 2 1 1 0 1 1
3 2 2 4 3 5 7 9 9 7 7 7 10 10 6 5 4 5 4 2 3 3 4 4 4 4 4 4 4 3 3 2 1 2 2 2 2 2 2 1 1 0 1 1
3 2 2 3 3 6 5 2 5 7 7 7 7 6 6 5 5 4 2 2 3 4 4 4 4 5 5 4 4 3 2 2 1 2 2 2 2 2 2 1 1 0 0 0
3 3 2 2 4 8 4 2 1 3 5 5 6 6 6 4 4 3 2 3 3 3 3 4 4 4 4 4 3 2 2 1 2 2 2 2 2 2 2 1 1 0 0 0
1 1 2 2 3 5 3 1 1 1 4 2 2 3 4 4 4 5 4 4 4 3 3 3 3 4 4 4 3 2 1 1 2 2 2 2 2 2 2 2 1 1 1 0
3 3 5 5 5 6 2 1 2 2 5 3 1 2 2 2 4 4 5 4 3 3 3 3 3 3 3 3 3 2 2 2 2 2 2 2 2 2 2 2 1 1 1 1
6 5 6 5 5 7 3 4 4 4 2 2 2 2 2 3 4 4 4 4 3 4 4 3 3 4 4 3 3 2 2 3 2 2 2 2 2 2 2 2 2 1 1 1
7 7 4 7 7 3 4 4 3 2 3 3 2 3 2 3 4 3 3 4 3 3 3 3 3 4 4 3 3 3 3 3 2 2 2 2 2 2 2 1 1 1 1 1
5 3 3 5 8 5 5 4 4 3 3 3 3 3 2 3 4 3 3 3 3 3 3 3 3 4 4 4 3 3 3 3 2 2 2 1 1 2 2 1 1 1 1 1
5 5 5 8 8 6 6 6 4 3 2 2 2 2 2 3 4 3 3 3 3 3 3 3 3 4 4 4 3 3 3 2 2 2 1 1 1 1 2 2 2 1 1 1
6 7 7 9 6 5 5 3 3 3 4 4 3 3 3 3 4 4 3 3 3 3 3 3 3 4 4 3 3 3 3 2 1 2 1 1 1 1 1 2 3 4 3 4
Wind_Direction
191 230 235 235 233 269 282 276 279 287 310 292 266 266 257 240 229 231 236 240 247 238 233 195 184 92 15 351 350 152 198 203 129 167 227 331 301 291 301 28 12 330 319 330
211 234 260 267 262 272 274 271 279 294 300 288 271 269 256 234 220 216 226 239 250 246 225 208 164 53 318 280 276 263 244 244 226 208 224 215 247 279 273 296 295 317 313 317
229 262 292 267 266 273 269 263 283 292 305 267 275 281 242 203 206 214 225 231 242 240 243 251 237 289 270 251 243 259 249 260 245 211 192 113 304 290 287 270 253 275 299 295
248 241 259 266 263 270 266 284 287 285 286 273 249 286 256 199 202 216 233 243 252 255 258 268 280 272 258 242 237 216 225 252 252 220 197 203 239 256 262 260 252 255 291 296
257 197 251 260 272 283 275 303 282 266 262 277 245 249 275 181 213 227 229 239 246 235 241 279 298 294 293 227 193 203 235 252 265 238 219 226 241 253 264 265 263 271 268 263
253 238 260 282 303 291 294 286 272 245 244 261 231 220 273 209 220 226 203 208 223 356 325 313 349 334 299 212 155 224 254 259 255 249 238 229 232 244 254 262 255 260 253 244
245 212 196 236 291 274 278 281 332 306 240 250 231 223 254 247 199 168 158 135 79 61 24 8 353 321 320 311 201 240 256 276 271 262 257 246 238 239 240 245 245 252 256 253
256 244 180 194 218 238 244 250 202 248 264 288 277 235 246 74 85 81 90 97 53 18 7 3 346 339 349 319 283 272 275 281 278 278 270 256 251 246 243 243 245 248 247 248
267 272 111 179 223 247 241 239 279 283 285 275 249 236 276 37 58 57 65 50 324 326 359 358 344 333 336 331 330 310 288 284 277 278 279 269 261 257 254 252 257 256 245 244
295 281 236 200 214 232 266 280 246 230 269 275 267 243 252 315 324 7 52 285 306 326 358 350 337 332 340 343 344 337 301 285 285 285 279 276 265 263 255 252 254 260 252 236
262 257 248 218 210 207 190 222 235 247 253 256 282 278 8 144 141 325 298 309 323 338 343 333 326 324 335 347 345 335 322 306 299 293 292 288 267 260 258 252 253 259 258 237
259 252 257 244 194 276 223 213 203 228 262 244 263 274 344 54 76 38 357 358 1 349 336 325 323 331 331 336 335 328 329 322 312 310 308 294 265 246 253 259 263 261 256 244
33 201 281 252 214 246 263 253 240 252 271 253 255 264 329 19 36 14 357 357 350 338 335 329 332 325 318 323 328 328 319 313 320 322 317 307 293 276 268 267 266 260 257 253
319 226 227 240 274 261 260 256 241 229 239 258 249 267 288 305 320 323 337 348 344 338 339 333 325 323 322 319 322 322 314 313 318 323 327 319 308 298 291 281 263 250 243 240
200 245 250 269 280 271 260 254 237 232 241 250 271 279 287 291 303 317 336 345 347 343 335 330 327 325 324 321 322 320 318 324 322 322 325 314 315 310 298 289 280 250 242 238
209 251 273 271 261 265 270 259 245 245 249 255 273 279 286 298 320 330 327 329 328 322 321 321 327 323 320 320 317 314 313 316 317 309 306 317 325 322 312 294 291 286 253 229
204 214 261 270 285 298 267 238 223 231 232 237 254 266 292 309 311 302 299 312 306 314 321 321 317 313 308 306 306 302 302 314 325 317 322 340 342 333 325 319 343 283 250 222
203 204 234 278 309 254 244 210 206 227 241 235 250 272 288 293 299 296 295 317 315 322 319 318 316 316 314 312 314 311 318 325 323 325 331 345 351 327 323 326 319 299 271 177
206 207 230 240 261 269 264 252 216 217 259 237 250 276 297 317 319 296 330 340 323 322 320 318 324 323 322 318 314 323 329 334 333 327 329 331 327 318 316 310 289 327 54 60
146 195 217 232 247 254 252 125 36 79 272 281 271 287 318 346 314 295 328 340 347 351 347 339 335 334 329 324 330 336 331 329 318 320 326 333 335 329 318 317 337 42 78 75
170 201 216 230 244 261 245 164 96 180 261 324 327 304 309 284 274 296 325 333 339 339 338 343 339 332 324 331 340 331 328 313 320 337 350 354 353 343 335 350 11 46 56 57
187 192 204 206 230 251 173 135 186 230 295 326 318 305 294 293 303 317 323 327 336 340 341 346 344 334 332 338 341 333 330 336 354 1 3 352 350 344 349 14 22 42 66 69
207 203 203 208 225 242 175 206 229 245 274 283 299 303 295 293 294 306 313 319 328 333 333 342 338 328 332 344 348 334 333 351 357 4 356 342 344 350 4 40 42 34 42 72
223 200 229 258 259 256 243 246 246 240 252 269 273 277 281 277 284 291 299 306 314 320 323 330 326 318 321 336 343 338 340 352 356 348 337 340 8 18 26 37 51 50 42 63
226 194 229 255 267 275 254 241 239 237 252 269 277 286 270 266 277 277 284 291 298 309 311 311 305 302 309 324 332 340 347 357 354 340 352 27 36 38 31 26 25 24 22 37
212 208 216 242 245 242 262 250 228 226 241 242 248 273 277 255 261 276 281 281 285 291 300 309 307 305 309 323 333 342 351 351 349 340 351 34 43 48 53 48 33 31 29 27
Height
1500 1503 1503 1501 1500 1499 1498 1498 1497 1494 1492 1494 1492 1490 1487 1487 1487 1487 1488 1489 1489 1489 1489 1489 1489 1488 1487 1486 1485 1484 1484 1484 1484 1484 1484 1483 1484 1484 1485 1485 1485 1485 1485 1485
1501 1503 1500 1498 1498 1498 1497 1497 1496 1493 1493 1493 1490 1486 1482 1482 1483 1484 1485 1486 1486 1486 1486 1486 1486 1485 1484 1484 1483 1482 1482 1482 1482 1482 1482 1482 1482 1482 1482 1482 1482 1483 1482 1482
1499 1500 1498 1498 1498 1498 1497 1496 1496 1496 1493 1490 1490 1486 1478 1477 1479 1481 1482 1482 1483 1483 1483 1483 1483 1482 1482 1481 1480 1480 1479 1479 1479 1479 1479 1479 1480 1479 1479 1479 1479 1480 1479 1479
1497 1498 1498 1498 1498 1497 1497 1493 1494 1494 1498 1496 1491 1494 1477 1475 1476 1478 1479 1480 1480 1481 1480 1480 1480 1480 1479 1478 1478 1477 1477 1476 1476 1476 1476 1476 1476 1476 1476 1476 1476 1476 1476 1476
1497 1497 1498 1498 1497 1496 1496 1493 1493 1493 1495 1496 1490 1493 1480 1474 1476 1476 1476 1477 1478 1478 1479 1478 1478 1477 1476 1475 1475 1474 1474 1474 1474 1473 1473 1473 1473 1473 1474 1474 1473 1473 1473 1473
1497 1497 1498 1497 1497 1496 1495 1494 1491 1491 1495 1500 1486 1489 1482 1476 1473 1473 1474 1475 1476 1476 1476 1476 1476 1475 1474 1473 1472 1472 1471 1471 1471 1471 1471 1470 1470 1471 1471 1470 1470 1470 1470 1470
1497 1496 1496 1497 1498 1497 1497 1499 1502 1502 1500 1492 1478 1482 1480 1469 1468 1469 1471 1473 1474 1474 1474 1474 1473 1473 1471 1470 1470 1469 1468 1468 1468 1468 1468 1468 1468 1468 1467 1467 1467 1466 1466 1467
1499 1497 1494 1495 1497 1499 1498 1498 1506 1507 1499 1488 1480 1481 1475 1468 1467 1468 1470 1472 1472 1473 1472 1472 1472 1470 1469 1468 1467 1466 1466 1466 1465 1465 1465 1464 1464 1464 1464 1464 1464 1463 1463 1464
1500 1497 1494 1494 1495 1497 1497 1498 1496 1501 1498 1496 1483 1474 1471 1468 1468 1469 1469 1471 1471 1471 1471 1470 1470 1468 1467 1466 1464 1464 1463 1463 1462 1461 1461 1461 1461 1461 1461 1461 1460 1460 1460 1460
1499 1501 1496 1495 1495 1496 1497 1496 1500 1502 1501 1495 1479 1474 1475 1472 1470 1469 1469 1470 1470 1470 1469 1468 1468 1467 1465 1464 1463 1462 1461 1460 1459 1458 1458 1457 1457 1457 1457 1457 1457 1456 1456 1457
1498 1503 1499 1497 1497 1496 1498 1499 1497 1498 1495 1496 1489 1481 1469 1469 1469 1469 1469 1469 1469 1468 1468 1467 1466 1465 1464 1462 1461 1459 1458 1457 1455 1454 1454 1453 1453 1453 1453 1453 1453 1453 1453 1453
1498 1501 1501 1495 1493 1493 1492 1493 1496 1501 1497 1492 1491 1485 1468 1467 1467 1468 1468 1468 1468 1467 1466 1465 1464 1462 1461 1459 1458 1456 1455 1454 1452 1451 1450 1450 1450 1450 1450 1449 1449 1449 1449 1449
1499 1503 1503 1495 1497 1496 1494 1492 1492 1495 1496 1493 1491 1483 1468 1468 1467 1468 1468 1467 1466 1466 1465 1464 1462 1460 1458 1457 1455 1454 1453 1451 1450 1448 1447 1446 1446 1446 1446 1446 1446 1446 1446 1446
1499 1502 1502 1497 1492 1494 1495 1493 1492 1494 1496 1490 1483 1476 1470 1468 1467 1467 1466 1466 1465 1464 1463 1462 1460 1459 1457 1455 1453 1451 1450 1449 1447 1446 1444 1443 1443 1443 1443 1443 1443 1443 1443 1443
1499 1500 1498 1495 1491 1489 1488 1488 1488 1490 1487 1486 1477 1473 1468 1467 1466 1466 1465 1464 1463 1462 1461 1460 1458 1457 1455 1453 1450 1449 1447 1446 1445 1443 1442 1441 1441 1440 1440 1439 1439 1440 1440 1439
1498 1499 1497 1494 1488 1487 1486 1483 1483 1483 1481 1479 1476 1472 1467 1466 1465 1464 1463 1462 1461 1460 1459 1458 1456 1454 1452 1450 1448 1446 1444 1443 1442 1441 1440 1439 1438 1437 1437 1436 1436 1436 1436 1436
1497 1499 1498 1492 1487 1487 1486 1478 1478 1477 1475 1475 1474 1469 1465 1464 1463 1462 1461 1460 1459 1458 1457 1455 1453 1452 1450 1448 1446 1444 1442 1441 1440 1439 1438 1437 1436 1435 1434 1434 1433 1433 1433 1434
1496 1497 1497 1495 1493 1491 1474 1468 1468 1470 1469 1469 1468 1465 1464 1463 1462 1461 1460 1459 1457 1455 1454 1452 1451 1449 1447 1445 1443 1442 1440 1439 1438 1437 1436 1435 1434 1433 1432 1431 1431 1431 1431 1431
1492 1495 1495 1495 1492 1480 1471 1468 1467 1469 1468 1465 1465 1463 1462 1461 1459 1458 1458 1457 1456 1454 1452 1451 1449 1447 1445 1442 1441 1439 1438 1437 1436 1435 1434 1433 1432 1432 1431 1430 1429 1429 1429 1429
1492 1494 1496 1493 1490 1482 1469 1467 1465 1468 1469 1463 1462 1462 1461 1460 1461 1458 1456 1455 1453 1452 1450 1448 1447 1445 1442 1440 1439 1437 1436 1435 1434 1433 1433 1432 1431 1430 1429 1428 1427 1427 1427 1427
1494 1494 1494 1492 1488 1475 1468 1466 1466 1473 1468 1461 1460 1460 1461 1461 1461 1458 1455 1453 1451 1450 1448 1446 1444 1442 1440 1438 1437 1435 1434 1433 1432 1432 1431 1430 1429 1428 1427 1427 1426 1425 1425 1425
1486 1488 1488 1487 1485 1476 1465 1466 1468 1465 1461 1460 1459 1459 1459 1459 1457 1455 1454 1452 1449 1447 1445 1443 1441 1439 1438 1436 1435 1433 1432 1431 1431 1429 1428 1428 1427 1426 1426 1425 1424 1424 1424 1424
1477 1476 1475 1475 1471 1462 1461 1461 1461 1460 1460 1459 1458 1458 1457 1456 1455 1453 1452 1450 1448 1446 1443 1441 1439 1437 1435 1434 1433 1431 1430 1429 1428 1427 1426 1425 1425 1425 1424 1424 1423 1423 1423 1423
1470 1469 1470 1468 1461 1459 1459 1458 1458 1457 1457 1456 1456 1455 1455 1454 1452 1451 1449 1448 1446 1444 1442 1440 1438 1435 1433 1432 1431 1429 1428 1427 1426 1424 1424 1423 1423 1423 1423 1423 1423 1422 1422 1422
1464 1466 1466 1464 1458 1456 1454 1454 1454 1454 1454 1454 1453 1453 1452 1451 1449 1448 1446 1445 1443 1441 1440 1438 1436 1434 1432 1430 1429 1428 1426 1425 1424 1423 1422 1422 1422 1422 1421 1421 1422 1422 1422 1422
1457 1459 1460 1456 1452 1452 1450 1449 1450 1450 1450 1450 1450 1449 1449 1448 1446 1445 1444 1443 1441 1439 1437 1435 1434 1432 1430 1428 1427 1426 1425 1423 1422 1421 1421 1420 1420 1420 1420 1420 1420 1421 1421 1421